Time,TemperatureF,DewpointF,PressureIn,WindDirection,WindDirectionDegrees,WindSpeedMPH,WindSpeedGustMPH,Humidity,HourlyPrecipIn,Conditions,Clouds,dailyrainin,SoftwareType,DateUTC
2013-08-11 00:04:00,68.1,63.0,30.09,SE,134,0.0,0.0,84,0.00,RA,SKC,0.00,WeatherDisplay:10.37,2013-08-11 05:04:00,
2013-08-11 00:09:00,67.8,63.1,30.09,SE,134,0.0,0.0,85,0.00,CLR,SKC,0.00,WeatherDisplay:10.37,2013-08-11 05:09:00,
2013-08-11 00:19:00,67.5,63.2,30.09,SE,134,0.0,0.0,86,0.00,CLR,SKC,0.00,WeatherDisplay:10.37,2013-08-11 05:19:00,
2013-08-11 00:34:00,66.9,63.2,30.08,SE,134,0.0,0.0,88,0.00,CLR,SKC,0.00,WeatherDisplay:10.37,2013-08-11 05:34:00,
2013-08-11 00:39:00,66.8,63.1,30.08,SE,134,0.0,0.0,88,0.00,CLR,SKC,0.00,WeatherDisplay:10.37,2013-08-11 05:39:00,
2013-08-11 00:49:00,66.7,63.4,30.09,SE,134,0.0,0.0,89,0.00,CLR,SKC,0.00,WeatherDisplay:10.37,2013-08-11 05:49:00,
2013-08-11 00:54:00,66.7,63.3,30.09,SE,134,0.0,0.0,89,0.00,CLR,SKC,0.00,WeatherDisplay:10.37,2013-08-11 05:54:00,
2013-08-11 00:59:00,66.5,63.2,30.09,SE,134,0.0,0.0,89,0.00,CLR,SKC,0.00,WeatherDisplay:10.37,2013-08-11 05:59:00,
2013-08-11 01:04:00,66.3,63.0,30.09,SE,134,0.0,0.0,89,0.00,CLR,SKC,0.00,WeatherDisplay:10.37,2013-08-11 06:04:00,
2013-08-11 01:14:00,65.9,62.9,30.08,SE,134,0.0,0.0,90,0.00,CLR,SKC,0.00,WeatherDisplay:10.37,2013-08-11 06:14:00,
2013-08-11 01:24:00,65.4,62.4,30.09,SE,134,0.0,0.0,90,0.00,CLR,SKC,0.00,WeatherDisplay:10.37,2013-08-11 06:24:00,
2013-08-11 01:29:00,65.2,62.2,30.09,SE,134,0.0,0.0,90,0.00,CLR,SKC,0.00,WeatherDisplay:10.37,2013-08-11 06:29:00,
2013-08-11 01:34:00,65.2,62.2,30.09,SE,134,0.0,0.0,90,0.00,CLR,SKC,0.00,WeatherDisplay:10.37,2013-08-11 06:34:00,
2013-08-11 01:39:00,65.1,62.4,30.09,SE,134,0.0,0.0,91,0.00,CLR,SKC,0.00,WeatherDisplay:10.37,2013-08-11 06:39:00,
2013-08-11 01:44:00,64.9,62.2,30.09,SE,134,0.0,0.0,91,0.00,CLR,SKC,0.00,WeatherDisplay:10.37,2013-08-11 06:44:00,
2013-08-11 01:49:00,64.9,62.2,30.09,SE,134,0.0,0.0,91,0.00,CLR,SKC,0.00,WeatherDisplay:10.37,2013-08-11 06:49:00,
2013-08-11 02:04:00,65.0,62.0,30.09,SE,134,0.0,0.0,90,0.00,CLR,SKC,0.00,WeatherDisplay:10.37,2013-08-11 07:04:00,
2013-08-11 02:09:00,64.9,61.9,30.09,SE,134,0.0,0.0,90,0.00,CLR,SKC,0.00,WeatherDisplay:10.37,2013-08-11 07:09:00,
2013-08-11 02:19:00,64.8,61.8,30.09,SE,134,0.0,0.0,90,0.00,CLR,SKC,0.00,WeatherDisplay:10.37,2013-08-11 07:19:00,
2013-08-11 02:24:00,64.5,61.5,30.09,SE,134,0.0,0.0,90,0.00,CLR,SKC,0.00,WeatherDisplay:10.37,2013-08-11 07:24:00,
2013-08-11 02:29:00,64.2,61.2,30.09,SE,134,0.0,0.0,90,0.00,CLR,SKC,0.00,WeatherDisplay:10.37,2013-08-11 07:29:00,
2013-08-11 02:39:00,63.9,61.2,30.09,SE,134,0.0,0.0,91,0.00,CLR,SKC,0.00,WeatherDisplay:10.37,2013-08-11 07:39:00,
2013-08-11 02:44:00,63.8,61.5,30.09,SE,134,0.0,0.0,92,0.00,CLR,SKC,0.00,WeatherDisplay:10.37,2013-08-11 07:44:00,
2013-08-11 02:49:00,63.8,61.5,30.09,SE,134,0.0,0.0,92,0.00,CLR,SKC,0.00,WeatherDisplay:10.37,2013-08-11 07:49:00,
2013-08-11 02:54:00,63.6,61.3,30.08,SE,134,0.0,0.0,92,0.00,CLR,SKC,0.00,WeatherDisplay:10.37,2013-08-11 07:54:00,
2013-08-11 03:04:00,63.3,61.0,30.08,SE,134,0.0,0.0,92,0.00,CLR,SKC,0.00,WeatherDisplay:10.37,2013-08-11 08:04:00,
2013-08-11 03:09:00,63.4,61.4,30.08,SE,134,0.0,0.0,93,0.00,CLR,SKC,0.00,WeatherDisplay:10.37,2013-08-11 08:09:00,
2013-08-11 03:19:00,63.6,61.5,30.08,SE,134,0.0,0.0,93,0.00,CLR,SKC,0.00,WeatherDisplay:10.37,2013-08-11 08:19:00,
2013-08-11 03:24:00,63.6,61.3,30.08,SE,134,0.0,0.0,92,0.00,CLR,SKC,0.00,WeatherDisplay:10.37,2013-08-11 08:24:00,
2013-08-11 03:29:00,63.5,61.2,30.08,SE,134,0.0,0.0,92,0.00,CLR,SKC,0.00,WeatherDisplay:10.37,2013-08-11 08:29:00,
2013-08-11 03:39:00,63.4,61.1,30.08,SE,134,0.0,0.0,92,0.00,CLR,SKC,0.00,WeatherDisplay:10.37,2013-08-11 08:39:00,
2013-08-11 03:49:00,63.3,61.0,30.08,SE,134,0.0,0.0,92,0.00,CLR,SKC,0.00,WeatherDisplay:10.37,2013-08-11 08:49:00,
2013-08-11 03:54:00,63.3,61.0,30.08,SE,134,0.0,0.0,92,0.00,CLR,SKC,0.00,WeatherDisplay:10.37,2013-08-11 08:54:00,
2013-08-11 03:59:00,63.4,61.0,30.08,SE,134,0.0,0.0,92,0.00,CLR,SKC,0.00,WeatherDisplay:10.37,2013-08-11 08:59:00,
2013-08-11 04:09:00,63.5,60.8,30.08,SE,134,0.0,0.0,91,0.00,CLR,SKC,0.00,WeatherDisplay:10.37,2013-08-11 09:09:00,
2013-08-11 04:19:00,63.3,60.6,30.08,SE,134,0.0,0.0,91,0.00,CLR,SKC,0.00,WeatherDisplay:10.37,2013-08-11 09:19:00,
2013-08-11 04:24:00,63.1,60.4,30.07,SE,134,0.0,0.0,91,0.00,CLR,SKC,0.00,WeatherDisplay:10.37,2013-08-11 09:24:00,
2013-08-11 04:29:00,63.0,60.6,30.07,SE,134,0.0,0.0,92,0.00,CLR,SKC,0.00,WeatherDisplay:10.37,2013-08-11 09:29:00,
2013-08-11 04:39:00,62.7,60.4,30.07,SE,134,0.0,0.0,92,0.00,CLR,SKC,0.00,WeatherDisplay:10.37,2013-08-11 09:39:00,
2013-08-11 04:44:00,62.5,60.2,30.07,SE,134,0.0,0.0,92,0.00,CLR,SKC,0.00,WeatherDisplay:10.37,2013-08-11 09:44:00,
2013-08-11 04:49:00,62.3,60.3,30.07,SE,134,0.0,0.0,93,0.00,CLR,SKC,0.00,WeatherDisplay:10.37,2013-08-11 09:49:00,
2013-08-11 04:59:00,62.2,60.2,30.07,SE,134,0.0,0.0,93,0.00,CLR,SKC,0.00,WeatherDisplay:10.37,2013-08-11 09:59:00,
2013-08-11 05:04:00,62.4,60.3,30.07,SE,134,0.0,0.0,93,0.00,CLR,SKC,0.00,WeatherDisplay:10.37,2013-08-11 10:04:00,
2013-08-11 05:09:00,62.3,60.3,30.07,SE,134,0.0,0.0,93,0.00,CLR,SKC,0.00,WeatherDisplay:10.37,2013-08-11 10:09:00,
2013-08-11 05:14:00,62.3,60.3,30.07,SE,134,0.0,0.0,93,0.00,CLR,SKC,0.00,WeatherDisplay:10.37,2013-08-11 10:14:00,
2013-08-11 05:19:00,62.2,60.1,30.07,SE,134,0.0,0.0,93,0.00,CLR,SKC,0.00,WeatherDisplay:10.37,2013-08-11 10:19:00,
2013-08-11 05:24:00,62.0,59.9,30.07,SE,134,0.0,0.0,93,0.00,CLR,SKC,0.00,WeatherDisplay:10.37,2013-08-11 10:24:00,
2013-08-11 05:29:00,61.8,59.8,30.07,SE,134,0.0,0.0,93,0.00,CLR,SKC,0.00,WeatherDisplay:10.37,2013-08-11 10:29:00,
2013-08-11 05:34:00,61.8,60.1,30.07,SE,134,0.0,0.0,94,0.00,CLR,SKC,0.00,WeatherDisplay:10.37,2013-08-11 10:34:00,
2013-08-11 05:39:00,61.7,59.7,30.07,SE,134,0.0,0.0,93,0.00,CLR,SKC,0.00,WeatherDisplay:10.37,2013-08-11 10:39:00,
2013-08-11 05:54:00,61.3,59.3,30.07,SE,134,0.0,0.0,93,0.00,CLR,SKC,0.00,WeatherDisplay:10.37,2013-08-11 10:54:00,
2013-08-11 06:04:00,61.1,59.4,30.08,SE,134,0.0,0.0,94,0.00,CLR,SKC,0.00,WeatherDisplay:10.37,2013-08-11 11:04:00,
2013-08-11 06:14:00,61.3,59.6,30.08,SE,134,0.0,0.0,94,0.00,CLR,SKC,0.00,WeatherDisplay:10.37,2013-08-11 11:14:00,
2013-08-11 06:19:00,61.3,59.2,30.08,SE,134,0.0,0.0,93,0.00,CLR,SKC,0.00,WeatherDisplay:10.37,2013-08-11 11:19:00,
2013-08-11 06:34:00,61.2,59.5,30.07,SE,134,0.0,0.0,94,0.00,CLR,SKC,0.00,WeatherDisplay:10.37,2013-08-11 11:34:00,
2013-08-11 06:39:00,61.3,59.3,30.07,SE,134,0.0,0.0,93,0.00,CLR,SKC,0.00,WeatherDisplay:10.37,2013-08-11 11:39:00,
2013-08-11 06:44:00,61.2,59.2,30.07,SE,134,0.0,0.0,93,0.00,CLR,SKC,0.00,WeatherDisplay:10.37,2013-08-11 11:44:00,
2013-08-11 06:49:00,61.4,59.7,30.07,SE,134,0.0,0.0,94,0.00,CLR,SKC,0.00,WeatherDisplay:10.37,2013-08-11 11:49:00,
2013-08-11 06:54:00,61.7,59.6,30.08,SE,134,0.0,0.0,93,0.00,CLR,SKC,0.00,WeatherDisplay:10.37,2013-08-11 11:54:00,
2013-08-11 07:04:00,62.3,59.9,30.08,SE,134,0.0,0.0,92,0.00,CLR,SKC,0.00,WeatherDisplay:10.37,2013-08-11 12:04:00,
2013-08-11 07:09:00,62.6,60.3,30.08,SE,134,0.0,0.0,92,0.00,CLR,SKC,0.00,WeatherDisplay:10.37,2013-08-11 12:09:00,
2013-08-11 07:19:00,63.4,60.4,30.08,SE,134,0.0,0.0,90,0.00,CLR,SKC,0.00,WeatherDisplay:10.37,2013-08-11 12:19:00,
2013-08-11 07:24:00,63.8,60.8,30.08,SE,134,0.0,0.0,90,0.00,CLR,SKC,0.00,WeatherDisplay:10.37,2013-08-11 12:24:00,
2013-08-11 07:29:00,64.0,60.7,30.08,SE,134,0.0,2.0,89,0.00,CLR,SKC,0.00,WeatherDisplay:10.37,2013-08-11 12:29:00,
2013-08-11 07:34:00,64.3,61.0,30.08,SE,134,0.0,2.0,89,0.00,CLR,SKC,0.00,WeatherDisplay:10.37,2013-08-11 12:34:00,
2013-08-11 07:39:00,64.8,61.1,30.08,SE,134,0.0,2.0,88,0.00,CLR,SKC,0.00,WeatherDisplay:10.37,2013-08-11 12:39:00,
2013-08-11 07:49:00,65.8,61.8,30.08,SE,140,0.0,2.0,87,0.00,CLR,SKC,0.00,WeatherDisplay:10.37,2013-08-11 12:49:00,
2013-08-11 07:54:00,66.6,61.9,30.08,SE,142,0.0,2.0,85,0.00,CLR,SKC,0.00,WeatherDisplay:10.37,2013-08-11 12:54:00,
2013-08-11 07:59:00,67.3,62.3,30.08,SSE,147,2.0,5.0,84,0.00,CLR,SKC,0.00,WeatherDisplay:10.37,2013-08-11 12:59:00,
2013-08-11 08:14:00,70.2,62.6,30.08,South,190,2.0,10.0,77,0.00,CLR,SKC,0.00,WeatherDisplay:10.37,2013-08-11 13:14:00,
2013-08-11 08:19:00,70.7,62.7,30.07,South,188,5.0,9.0,76,0.00,CLR,SKC,0.00,WeatherDisplay:10.37,2013-08-11 13:19:00,
2013-08-11 08:34:00,72.0,63.2,30.07,South,175,3.0,8.0,74,0.00,CLR,SKC,0.00,WeatherDisplay:10.37,2013-08-11 13:34:00,
2013-08-11 08:39:00,72.4,63.6,30.07,SSE,152,2.0,7.0,74,0.00,CLR,SKC,0.00,WeatherDisplay:10.37,2013-08-11 13:39:00,
2013-08-11 08:49:00,73.4,63.8,30.07,South,183,2.0,8.0,72,0.00,CLR,SKC,0.00,WeatherDisplay:10.37,2013-08-11 13:49:00,
2013-08-11 08:59:00,74.1,64.1,30.07,SSE,159,5.0,12.0,71,0.00,CLR,SKC,0.00,WeatherDisplay:10.37,2013-08-11 13:59:00,
2013-08-11 09:09:00,74.4,63.6,30.07,SSE,167,6.0,13.0,69,0.00,CLR,SKC,0.00,WeatherDisplay:10.37,2013-08-11 14:09:00,
2013-08-11 09:19:00,75.0,63.7,30.07,South,176,2.0,8.0,68,0.00,CLR,SKC,0.00,WeatherDisplay:10.37,2013-08-11 14:19:00,
2013-08-11 09:29:00,75.9,64.2,30.07,South,169,1.0,10.0,67,0.00,CLR,SKC,0.00,WeatherDisplay:10.37,2013-08-11 14:29:00,
2013-08-11 09:39:00,76.5,63.9,30.07,SSE,160,3.0,9.0,65,0.00,CLR,SKC,0.00,WeatherDisplay:10.37,2013-08-11 14:39:00,
2013-08-11 09:49:00,76.9,63.8,30.07,SSW,193,3.0,8.0,64,0.00,CLR,SKC,0.00,WeatherDisplay:10.37,2013-08-11 14:49:00,
2013-08-11 09:54:00,77.1,64.0,30.07,SSE,163,6.0,10.0,64,0.00,CLR,SKC,0.00,WeatherDisplay:10.37,2013-08-11 14:54:00,
2013-08-11 09:59:00,77.4,64.3,30.07,SSE,154,3.0,5.0,64,0.00,CLR,SKC,0.00,WeatherDisplay:10.37,2013-08-11 14:59:00,
2013-08-11 10:04:00,78.1,65.4,30.06,SSE,161,0.0,10.0,65,0.00,CLR,SKC,0.00,WeatherDisplay:10.37,2013-08-11 15:04:00,
2013-08-11 10:09:00,78.4,64.3,30.06,SSE,164,6.0,12.0,62,0.00,CLR,SKC,0.00,WeatherDisplay:10.37,2013-08-11 15:09:00,
2013-08-11 10:14:00,78.7,65.9,30.06,South,177,1.0,8.0,65,0.00,CLR,SKC,0.00,WeatherDisplay:10.37,2013-08-11 15:14:00,
2013-08-11 10:19:00,79.0,64.9,30.06,South,176,5.0,8.0,62,0.00,CLR,SKC,0.00,WeatherDisplay:10.37,2013-08-11 15:19:00,
2013-08-11 10:29:00,79.6,65.4,30.06,SSE,168,5.0,8.0,62,0.00,CLR,SKC,0.00,WeatherDisplay:10.37,2013-08-11 15:29:00,
2013-08-11 10:39:00,80.2,65.5,30.07,SSE,150,2.0,7.0,61,0.00,CLR,SKC,0.00,WeatherDisplay:10.37,2013-08-11 15:39:00,
2013-08-11 10:49:00,80.8,65.6,30.07,South,182,6.0,8.0,60,0.00,CLR,SKC,0.00,WeatherDisplay:10.37,2013-08-11 15:49:00,
2013-08-11 12:44:00,84.8,68.9,30.06,WNW,282,7.0,10.0,59,0.00,CLR,SKC,0.00,WeatherDisplay:10.37,2013-08-11 17:44:00,
2013-08-11 12:49:00,85.0,69.5,30.06,SSW,204,2.0,8.0,60,0.00,CLR,SKC,0.00,WeatherDisplay:10.37,2013-08-11 17:49:00,
2013-08-11 12:59:00,85.2,68.7,30.06,South,185,5.0,8.0,58,0.00,CLR,SKC,0.00,WeatherDisplay:10.37,2013-08-11 17:59:00,
2013-08-11 13:04:00,84.6,69.1,30.06,SSW,193,2.0,7.0,60,0.00,CLR,SKC,0.00,WeatherDisplay:10.37,2013-08-11 18:04:00,
2013-08-11 13:09:00,84.8,68.9,30.05,South,174,2.0,10.0,59,0.00,CLR,SKC,0.00,WeatherDisplay:10.37,2013-08-11 18:09:00,
2013-08-11 13:14:00,85.4,69.9,30.05,SE,135,3.0,10.0,60,0.00,CLR,SKC,0.00,WeatherDisplay:10.37,2013-08-11 18:14:00,
2013-08-11 13:24:00,85.3,69.4,30.05,SSE,154,5.0,10.0,59,0.00,CLR,SKC,0.00,WeatherDisplay:10.37,2013-08-11 18:24:00,
2013-08-11 13:29:00,85.4,69.5,30.05,South,191,5.0,10.0,59,0.00,CLR,SKC,0.00,WeatherDisplay:10.37,2013-08-11 18:29:00,
2013-08-11 13:39:00,84.9,69.5,30.05,SE,133,1.0,5.0,60,0.00,CLR,SKC,0.00,WeatherDisplay:10.37,2013-08-11 18:39:00,
2013-08-11 13:44:00,84.8,69.4,30.05,SE,136,5.0,11.0,60,0.00,CLR,SKC,0.00,WeatherDisplay:10.37,2013-08-11 18:44:00,
2013-08-11 13:49:00,85.5,68.5,30.04,SSE,165,3.0,8.0,57,0.00,CLR,SKC,0.00,WeatherDisplay:10.37,2013-08-11 18:49:00,
2013-08-11 13:54:00,86.2,68.6,30.04,South,173,2.0,10.0,56,0.00,CLR,SKC,0.00,WeatherDisplay:10.37,2013-08-11 18:54:00,
2013-08-11 13:59:00,86.1,69.6,30.04,South,174,3.0,9.0,58,0.00,CLR,SKC,0.00,WeatherDisplay:10.37,2013-08-11 18:59:00,
2013-08-11 14:04:00,86.1,69.5,30.04,SSE,164,5.0,7.0,58,0.00,CLR,SKC,0.00,WeatherDisplay:10.37,2013-08-11 19:04:00,
2013-08-11 14:14:00,86.3,69.7,30.03,SSE,152,5.0,13.0,58,0.00,CLR,SKC,0.00,WeatherDisplay:10.37,2013-08-11 19:14:00,
2013-08-11 14:19:00,85.9,69.4,30.03,SSE,148,3.0,10.0,58,0.00,CLR,SKC,0.00,WeatherDisplay:10.37,2013-08-11 19:19:00,
2013-08-11 14:29:00,85.8,69.3,30.03,South,179,6.0,13.0,58,0.00,CLR,SKC,0.00,WeatherDisplay:10.37,2013-08-11 19:29:00,
2013-08-11 14:39:00,85.9,69.4,30.03,South,189,5.0,12.0,58,0.00,CLR,SKC,0.00,WeatherDisplay:10.37,2013-08-11 19:39:00,
2013-08-11 14:44:00,85.4,69.0,30.03,SSW,196,3.0,12.0,58,0.00,CLR,SKC,0.00,WeatherDisplay:10.37,2013-08-11 19:44:00,
2013-08-11 14:49:00,85.7,69.7,30.04,SSW,196,2.0,5.0,59,0.00,CLR,SKC,0.00,WeatherDisplay:10.37,2013-08-11 19:49:00,
2013-08-11 16:30:00,86.1,69.1,30.02,SSE,150,1.0,7.0,57,0.00,CLR,SKC,0.00,WeatherDisplay:10.37,2013-08-11 21:30:00,
2013-08-11 16:40:00,86.1,68.5,30.01,SSW,192,2.0,7.0,56,0.00,CLR,SKC,0.00,WeatherDisplay:10.37,2013-08-11 21:40:00,
2013-08-11 16:50:00,85.9,68.4,30.01,SSE,154,0.0,7.0,56,0.00,CLR,SKC,0.00,WeatherDisplay:10.37,2013-08-11 21:50:00,
2013-08-11 16:55:00,86.0,68.5,30.01,South,177,1.0,5.0,56,0.00,CLR,SKC,0.00,WeatherDisplay:10.37,2013-08-11 21:55:00,
2013-08-11 17:00:00,86.1,69.1,30.01,SSE,148,0.0,5.0,57,0.00,CLR,SKC,0.00,WeatherDisplay:10.37,2013-08-11 22:00:00,
2013-08-11 17:05:00,86.6,69.5,30.01,SSE,154,2.0,7.0,57,0.00,CLR,SKC,0.00,WeatherDisplay:10.37,2013-08-11 22:05:00,
2013-08-11 17:15:00,86.6,67.9,30.01,SSW,196,2.0,5.0,54,0.00,CLR,SKC,0.00,WeatherDisplay:10.37,2013-08-11 22:15:00,
2013-08-11 17:20:00,86.5,68.4,30.00,SSE,166,2.0,5.0,55,0.00,CLR,SKC,0.00,WeatherDisplay:10.37,2013-08-11 22:20:00,
2013-08-11 17:25:00,87.1,69.5,30.00,SSE,162,0.0,5.0,56,0.00,CLR,SKC,0.00,WeatherDisplay:10.37,2013-08-11 22:25:00,
2013-08-11 17:30:00,87.0,69.4,30.00,SSE,156,1.0,10.0,56,0.00,CLR,SKC,0.00,WeatherDisplay:10.37,2013-08-11 22:30:00,
2013-08-11 17:40:00,86.1,68.6,30.00,SE,131,1.0,3.0,56,0.00,CLR,SKC,0.00,WeatherDisplay:10.37,2013-08-11 22:40:00,
2013-08-11 17:45:00,86.4,69.4,29.99,SE,134,0.0,5.0,57,0.00,CLR,SKC,0.00,WeatherDisplay:10.37,2013-08-11 22:45:00,
2013-08-11 17:50:00,86.9,68.8,29.99,SE,131,0.0,3.0,55,0.00,CLR,SKC,0.00,WeatherDisplay:10.37,2013-08-11 22:50:00,
2013-08-11 17:55:00,86.9,69.3,29.99,SSW,198,2.0,5.0,56,0.00,CLR,SKC,0.00,WeatherDisplay:10.37,2013-08-11 22:55:00,
2013-08-11 18:00:00,86.4,68.3,29.99,SSW,198,3.0,7.0,55,0.00,CLR,SKC,0.00,WeatherDisplay:10.37,2013-08-11 23:00:00,
2013-08-11 18:10:00,85.7,69.2,29.99,SW,220,0.0,5.0,58,0.00,CLR,SKC,0.00,WeatherDisplay:10.37,2013-08-11 23:10:00,
2013-08-11 18:15:00,85.5,69.0,29.99,SSW,199,5.0,7.0,58,0.00,CLR,SKC,0.00,WeatherDisplay:10.37,2013-08-11 23:15:00,
2013-08-11 18:20:00,85.0,68.6,29.99,South,188,1.0,5.0,58,0.00,CLR,SKC,0.00,WeatherDisplay:10.37,2013-08-11 23:20:00,
2013-08-11 18:30:00,84.3,68.4,29.99,SSW,198,1.0,7.0,59,0.00,CLR,SKC,0.00,WeatherDisplay:10.37,2013-08-11 23:30:00,
2013-08-11 18:35:00,84.0,68.6,29.98,South,189,1.0,5.0,60,0.00,CLR,SKC,0.00,WeatherDisplay:10.37,2013-08-11 23:35:00,
2013-08-11 18:45:00,83.6,69.2,29.98,SSW,200,2.0,7.0,62,0.00,CLR,SKC,0.00,WeatherDisplay:10.37,2013-08-11 23:45:00,
2013-08-11 18:50:00,83.6,69.2,29.98,SSW,204,0.0,5.0,62,0.00,CLR,SKC,0.00,WeatherDisplay:10.37,2013-08-11 23:50:00,
2013-08-11 19:00:00,83.1,69.2,29.98,SSW,202,1.0,3.0,63,0.00,CLR,SKC,0.00,WeatherDisplay:10.37,2013-08-12 00:00:00,
2013-08-11 19:05:00,82.7,68.9,29.98,SSW,207,1.0,3.0,63,0.00,CLR,SKC,0.00,WeatherDisplay:10.37,2013-08-12 00:05:00,
2013-08-11 19:10:00,82.5,69.1,29.98,SSW,211,0.0,3.0,64,0.00,CLR,SKC,0.00,WeatherDisplay:10.37,2013-08-12 00:10:00,
2013-08-11 19:20:00,82.2,69.2,29.98,SW,217,0.0,2.0,65,0.00,CLR,SKC,0.00,WeatherDisplay:10.37,2013-08-12 00:20:00,
2013-08-11 19:25:00,82.0,69.5,29.98,SW,220,0.0,2.0,66,0.00,CLR,SKC,0.00,WeatherDisplay:10.37,2013-08-12 00:25:00,
2013-08-11 19:30:00,81.9,69.4,29.98,SW,227,0.0,2.0,66,0.00,CLR,SKC,0.00,WeatherDisplay:10.37,2013-08-12 00:30:00,
2013-08-11 19:40:00,81.6,69.5,29.98,SSW,198,0.0,2.0,67,0.00,CLR,SKC,0.00,WeatherDisplay:10.37,2013-08-12 00:40:00,
2013-08-11 19:45:00,81.4,69.8,29.98,South,175,0.0,5.0,68,0.00,CLR,SKC,0.00,WeatherDisplay:10.37,2013-08-12 00:45:00,
2013-08-11 19:55:00,81.0,69.9,29.98,SSE,165,0.0,0.0,69,0.00,CLR,SKC,0.00,WeatherDisplay:10.37,2013-08-12 00:55:00,
2013-08-11 20:00:00,80.8,69.7,29.98,SSE,160,0.0,2.0,69,0.00,CLR,SKC,0.00,WeatherDisplay:10.37,2013-08-12 01:00:00,
2013-08-11 20:05:00,80.6,69.9,29.98,SSE,149,0.0,2.0,70,0.00,CLR,SKC,0.00,WeatherDisplay:10.37,2013-08-12 01:05:00,
2013-08-11 20:10:00,80.4,69.7,29.98,SE,144,0.0,1.0,70,0.00,CLR,SKC,0.00,WeatherDisplay:10.37,2013-08-12 01:10:00,
2013-08-11 20:15:00,80.2,70.0,29.97,SE,141,0.0,0.0,71,0.00,CLR,SKC,0.00,WeatherDisplay:10.37,2013-08-12 01:15:00,
2013-08-11 20:20:00,80.0,70.1,29.98,SE,141,0.0,0.0,72,0.00,CLR,SKC,0.00,WeatherDisplay:10.37,2013-08-12 01:20:00,
2013-08-11 20:30:00,79.4,70.0,29.98,SE,141,0.0,0.0,73,0.00,CLR,SKC,0.00,WeatherDisplay:10.37,2013-08-12 01:30:00,
2013-08-11 20:40:00,78.9,70.3,29.98,SSE,153,0.0,0.0,75,0.00,CLR,SKC,0.00,WeatherDisplay:10.37,2013-08-12 01:40:00,
2013-08-11 20:45:00,78.7,70.1,29.98,SSE,153,0.0,0.0,75,0.00,CLR,SKC,0.00,WeatherDisplay:10.37,2013-08-12 01:45:00,
2013-08-11 20:50:00,78.6,70.0,29.98,SSE,152,0.0,0.0,75,0.00,CLR,SKC,0.00,WeatherDisplay:10.37,2013-08-12 01:50:00,
2013-08-11 20:55:00,78.4,70.2,29.98,SSE,152,0.0,0.0,76,0.00,CLR,SKC,0.00,WeatherDisplay:10.37,2013-08-12 01:55:00,
2013-08-11 21:00:00,78.2,70.0,29.98,SSE,152,0.0,0.0,76,0.00,CLR,SKC,0.00,WeatherDisplay:10.37,2013-08-12 02:00:00,
2013-08-11 21:05:00,78.0,70.2,29.99,SSE,152,0.0,0.0,77,0.00,CLR,SKC,0.00,WeatherDisplay:10.37,2013-08-12 02:05:00,
2013-08-11 21:10:00,77.9,70.5,29.98,SSE,152,0.0,0.0,78,0.00,CLR,SKC,0.00,WeatherDisplay:10.37,2013-08-12 02:10:00,
2013-08-11 21:20:00,77.5,70.5,29.98,SSE,152,0.0,0.0,79,0.00,CLR,SKC,0.00,WeatherDisplay:10.37,2013-08-12 02:20:00,
2013-08-11 21:25:00,77.3,70.3,29.98,SSE,152,0.0,0.0,79,0.00,CLR,SKC,0.00,WeatherDisplay:10.37,2013-08-12 02:25:00,
2013-08-11 21:30:00,77.1,70.1,29.99,SSE,152,0.0,0.0,79,0.00,CLR,SKC,0.00,WeatherDisplay:10.37,2013-08-12 02:30:00,
2013-08-11 21:35:00,76.9,70.3,29.99,SSE,152,0.0,0.0,80,0.00,CLR,SKC,0.00,WeatherDisplay:10.37,2013-08-12 02:35:00,
2013-08-11 21:40:00,76.7,70.1,29.99,SSE,152,0.0,0.0,80,0.00,CLR,SKC,0.00,WeatherDisplay:10.37,2013-08-12 02:40:00,
2013-08-11 21:45:00,76.6,70.0,29.99,SSE,152,0.0,0.0,80,0.00,CLR,SKC,0.00,WeatherDisplay:10.37,2013-08-12 02:45:00,
2013-08-11 21:50:00,76.5,69.8,29.99,SSE,152,0.0,0.0,80,0.00,CLR,SKC,0.00,WeatherDisplay:10.37,2013-08-12 02:50:00,
2013-08-11 22:00:00,76.1,69.9,30.00,SSE,152,0.0,0.0,81,0.00,CLR,SKC,0.00,WeatherDisplay:10.37,2013-08-12 03:00:00,
2013-08-11 22:10:00,75.8,69.9,30.00,SSE,152,0.0,0.0,82,0.00,CLR,SKC,0.00,WeatherDisplay:10.37,2013-08-12 03:10:00,
2013-08-11 22:20:00,75.5,70.0,30.00,SSE,152,0.0,0.0,83,0.00,CLR,SKC,0.00,WeatherDisplay:10.37,2013-08-12 03:20:00,
2013-08-11 22:25:00,75.4,69.9,30.00,SSE,152,0.0,0.0,83,0.00,CLR,SKC,0.00,WeatherDisplay:10.37,2013-08-12 03:25:00,
2013-08-11 22:30:00,75.2,69.7,30.00,SSE,152,0.0,0.0,83,0.00,CLR,SKC,0.00,WeatherDisplay:10.37,2013-08-12 03:30:00,
2013-08-11 22:35:00,75.1,69.9,29.99,SSE,152,0.0,0.0,84,0.00,CLR,SKC,0.00,WeatherDisplay:10.37,2013-08-12 03:35:00,
2013-08-11 22:40:00,74.9,69.8,30.00,SSE,152,0.0,0.0,84,0.00,CLR,SKC,0.00,WeatherDisplay:10.37,2013-08-12 03:40:00,
2013-08-11 22:45:00,74.9,69.8,30.00,SSE,152,0.0,0.0,84,0.00,CLR,SKC,0.00,WeatherDisplay:10.37,2013-08-12 03:45:00,
2013-08-11 22:50:00,74.8,69.7,30.00,SSE,152,0.0,0.0,84,0.00,CLR,SKC,0.00,WeatherDisplay:10.37,2013-08-12 03:50:00,
2013-08-11 22:55:00,74.6,69.8,30.00,SSE,152,0.0,0.0,85,0.00,CLR,SKC,0.00,WeatherDisplay:10.37,2013-08-12 03:55:00,
2013-08-11 23:00:00,74.4,70.0,30.00,SSE,152,0.0,0.0,86,0.00,CLR,SKC,0.00,WeatherDisplay:10.37,2013-08-12 04:00:00,
2013-08-11 23:05:00,74.3,69.9,30.00,SSE,152,0.0,0.0,86,0.00,CLR,SKC,0.00,WeatherDisplay:10.37,2013-08-12 04:05:00,
2013-08-11 23:10:00,74.4,69.9,30.00,SSE,152,0.0,0.0,86,0.00,CLR,SKC,0.00,WeatherDisplay:10.37,2013-08-12 04:10:00,
2013-08-11 23:15:00,74.4,70.0,30.00,SSE,152,0.0,0.0,86,0.00,CLR,SKC,0.00,WeatherDisplay:10.37,2013-08-12 04:15:00,
2013-08-11 23:20:00,74.4,70.0,30.00,SSE,152,0.0,0.0,86,0.00,CLR,SKC,0.00,WeatherDisplay:10.37,2013-08-12 04:20:00,
2013-08-11 23:25:00,74.3,70.1,30.00,SSE,152,0.0,0.0,87,0.00,CLR,SKC,0.00,WeatherDisplay:10.37,2013-08-12 04:25:00,
2013-08-11 23:30:00,74.1,70.0,30.01,SSE,152,0.0,0.0,87,0.00,CLR,SKC,0.00,WeatherDisplay:10.37,2013-08-12 04:30:00,
2013-08-11 23:35:00,73.9,69.8,30.01,SSE,152,0.0,0.0,87,0.00,CLR,SKC,0.00,WeatherDisplay:10.37,2013-08-12 04:35:00,
2013-08-11 23:45:00,73.7,69.9,30.00,SSE,152,0.0,0.0,88,0.00,CLR,SKC,0.00,WeatherDisplay:10.37,2013-08-12 04:45:00,
2013-08-11 23:50:00,73.5,69.8,30.00,SSE,152,0.0,0.0,88,0.00,CLR,SKC,0.00,WeatherDisplay:10.37,2013-08-12 04:50:00,
2013-08-11 23:55:00,73.5,70.1,30.00,SSE,152,0.0,0.0,89,0.00,CLR,SKC,0.00,WeatherDisplay:10.37,2013-08-12 04:55:00,